Showing default

OPS 9345 (IDSCS 23), 3288

Orbit data source: Space-Track

OPS 9345 (IDSCS 23), 3288 is a payload satellite owned by SAMSO (US) in GEO that was launched on Thu, 13 Jun 1968 UTC via a TITAN IIIC launch vehicle from the Air Force Eastern Test Range (AFETR). Payload-class satellites include a variety of spacecraft equipped with specific instruments for various scientific and technological missions. These include communications satellites like Starlink; space stations such as the ISS; scientific satellites like the Hubble; Earth observation satellites from companies like Planet Labs, Umbra, and HawkEye 360; GPS; miniature CubeSats for education and research; and military/defense satellites.

Loading next visibility...
Identifier
3288, 1968-050E
Orbit
GEO
Last TLE update
18 hours ago
Origin
Manufacturer
Philco-Ford
Mission
Non-operational Defense Communications
Bus & Motor
IDCSP, Unknown motor
Mass
45 kg wet, 45 kg dry
Launch date (UTC)
1968-06-13 (57 years ago)
Launch vehicle
TITAN IIIC
Launch site
Air Force Eastern Test Range (AFETR)
Object type
Payload
Rocket body
Debris
Shape & HBR
Poly, 0.9 m
Radar Cross Section
0.926 m², Small (<0.1 m²)

Expand to show TLE details & history

TLE from 18 hours ago
0 OPS 9345 (IDSCS 23)
1 03288U 68050E   25188.04826534 -.00000100  00000-0  00000-0 0  9998
2 03288   6.3872  55.9328 0035062 131.6731  35.6111  1.07478880135536
Epoch: 2025-07-07T01:09Z
TLE epoch observation values (Epoch: 2025-07-07T01:09:30.125Z)
Latitude
1.3739°
Longitude
-79.10633°
Altitude
33,765.243 km
Speed
3.156 km/s
True Right ascension
14h 54m 07s
True Declination
1° 22' 21"
Sunlit
Object was in daylight at epoch
Visualization orbit readout
Latitude
6.26522°
Longitude
-144.37553°
Altitude
33,756.425 km
Speed
3.156 km/s
Apparent Right ascension
10h 54m 54s
Apparent Declination
0° 28' 35"
Sunlit
Object is in daylight
Visualization observer readout
Local Sidereal Time
07:31:33
Azimuth
117.222° SE
Elevation
29.321°
Doppler factor
1
Orbital elements
Apogee altitude
34,022.201 km
Perigee altitude
33,739.887 km
Semi-major axis
40,259.181 km
Eccentricity
0.00351
Inclination
6.3872°
RAAN
55.9328°
Arg. of periapsis
131.6731°
True anomaly
Unknown
Mean anomaly
35.6111°
Eccentric anomaly
Unknown
Mean motion
0.26869 °/min
Orbital period
1,339.85 mins
BSTAR
0
Loading historical data...
3288 neighbors
Loading maneuver chart data...
Loading SW <> Apogee altitude chart data...
Loading historical data...
Loading historical data...
Loading historical data...
Loading historical data...
Loading historical data...
Loading historical data...
Loading historical data...

OPS 9345 (IDSCS 23) Visibility forecast

Observer location: undefined°, undefined°

Span
Click to sort rows by Start time (UTC) header in descending order
Start Az.
Max El. time (UTC)
Max El. Az.
Max El.
End time (UTC)
End Az.
1364 mins2025-07-07 19:27:58.277Z117.239° SE2025-07-07 19:27:58.277Z117.239° SE26.084°2025-07-08 18:11:58.277Z98.32° ESE
|